Time,TemperatureF,DewpointF,PressureIn,WindDirection,WindDirectionDegrees,WindSpeedMPH,WindSpeedGustMPH,Humidity,HourlyPrecipIn,Conditions,Clouds,dailyrainin,SolarRadiationWatts/m^2,SoftwareType,DateUTC
2013-04-29 00:03:00,54.0,54.0,-100.00,ESE,103,3.0,8.0,100,0.01,,,1.37,0.000000,,2013-04-29 04:03:00,
2013-04-29 00:23:00,54.0,54.0,-100.00,North,2,1.0,9.0,100,0.00,,,1.37,0.000000,,2013-04-29 04:23:00,
2013-04-29 00:33:00,54.0,54.0,-100.00,North,2,1.0,9.0,100,0.00,,,1.37,0.000000,,2013-04-29 04:33:00,
2013-04-29 00:43:00,54.0,54.0,-100.00,North,2,1.0,9.0,100,0.00,,,1.37,0.000000,,2013-04-29 04:43:00,
2013-04-29 00:52:00,54.0,54.0,-100.00,North,2,1.0,9.0,100,0.00,,,1.37,0.000000,,2013-04-29 04:52:00,
2013-04-29 01:02:00,54.0,54.0,-100.00,North,2,1.0,9.0,100,0.00,,,1.37,0.000000,,2013-04-29 05:02:00,
2013-04-29 01:32:00,54.0,54.0,-100.00,NNW,339,2.0,4.0,100,0.01,,,1.37,0.000000,,2013-04-29 05:32:00,
2013-04-29 01:42:00,54.0,54.0,-100.00,NNW,339,2.0,4.0,100,0.01,,,1.37,0.000000,,2013-04-29 05:42:00,
2013-04-29 01:52:00,54.0,54.0,-100.00,NNW,339,2.0,4.0,100,0.01,,,1.37,0.000000,,2013-04-29 05:52:00,
2013-04-29 02:02:00,54.0,54.0,-100.00,NNW,339,2.0,4.0,100,0.01,,,1.37,0.000000,,2013-04-29 06:02:00,
2013-04-29 02:22:00,54.0,54.0,-100.00,NNW,330,2.0,4.0,100,0.03,,,1.39,0.000000,,2013-04-29 06:22:00,
2013-04-29 02:32:00,54.0,54.0,-100.00,NNW,330,2.0,4.0,100,0.03,,,1.39,0.000000,,2013-04-29 06:32:00,
2013-04-29 02:42:00,54.0,54.0,-100.00,NNW,330,2.0,4.0,100,0.03,,,1.39,0.000000,,2013-04-29 06:42:00,
2013-04-29 02:52:00,54.0,54.0,-100.00,NNW,330,2.0,4.0,100,0.03,,,1.39,0.000000,,2013-04-29 06:52:00,
2013-04-29 03:01:00,54.0,54.0,-100.00,NNW,330,2.0,4.0,100,0.03,,,1.39,0.000000,,2013-04-29 07:01:00,
2013-04-29 03:32:00,53.0,53.0,-100.00,SW,227,1.0,3.0,100,0.01,,,1.40,0.000000,,2013-04-29 07:32:00,
2013-04-29 03:42:00,53.0,53.0,-100.00,SW,227,1.0,3.0,100,0.01,,,1.40,0.000000,,2013-04-29 07:42:00,
2013-04-29 03:52:00,53.0,53.0,-100.00,SW,227,1.0,3.0,100,0.01,,,1.40,0.000000,,2013-04-29 07:52:00,
2013-04-29 04:03:00,53.0,53.0,-100.00,SW,227,1.0,3.0,100,0.01,,,1.40,0.000000,,2013-04-29 08:03:00,
2013-04-29 04:22:00,53.0,53.0,-100.00,South,188,1.0,3.0,100,0.01,,,1.41,0.000000,,2013-04-29 08:22:00,
2013-04-29 04:32:00,53.0,53.0,-100.00,South,188,1.0,3.0,100,0.01,,,1.41,0.000000,,2013-04-29 08:32:00,
2013-04-29 04:42:00,53.0,53.0,-100.00,South,188,1.0,3.0,100,0.01,,,1.41,0.000000,,2013-04-29 08:42:00,
2013-04-29 04:52:00,53.0,53.0,-100.00,South,188,1.0,3.0,100,0.01,,,1.41,0.000000,,2013-04-29 08:52:00,
2013-04-29 05:01:00,53.0,53.0,-100.00,South,188,1.0,3.0,100,0.01,,,1.41,0.000000,,2013-04-29 09:01:00,
2013-04-29 05:22:00,53.0,53.0,-100.00,NNW,342,1.0,3.0,100,0.01,,,1.42,0.000000,,2013-04-29 09:22:00,
2013-04-29 05:33:00,53.0,53.0,-100.00,NNW,342,1.0,3.0,100,0.01,,,1.42,0.000000,,2013-04-29 09:33:00,
2013-04-29 05:42:00,53.0,53.0,-100.00,NNW,342,1.0,3.0,100,0.01,,,1.42,0.000000,,2013-04-29 09:42:00,
2013-04-29 05:53:00,53.0,53.0,-100.00,NNW,342,1.0,3.0,100,0.01,,,1.42,0.000000,,2013-04-29 09:53:00,
2013-04-29 06:02:00,53.0,53.0,-100.00,NNW,342,1.0,3.0,100,0.01,,,1.42,0.000000,,2013-04-29 10:02:00,
2013-04-29 06:32:00,54.0,54.0,-100.00,SSE,150,0.0,2.0,100,0.03,,,1.45,0.000000,,2013-04-29 10:32:00,
2013-04-29 06:42:00,54.0,54.0,-100.00,SSE,150,0.0,2.0,100,0.03,,,1.45,0.000000,,2013-04-29 10:42:00,
2013-04-29 06:52:00,54.0,54.0,-100.00,SSE,150,0.0,2.0,100,0.03,,,1.45,0.000000,,2013-04-29 10:52:00,
2013-04-29 07:03:00,54.0,54.0,-100.00,SSE,150,0.0,2.0,100,0.03,,,1.45,0.000000,,2013-04-29 11:03:00,
2013-04-29 07:22:00,54.0,54.0,-100.00,ENE,73,1.0,2.0,100,0.00,,,1.45,1.000000,,2013-04-29 11:22:00,
2013-04-29 07:32:00,54.0,54.0,-100.00,ENE,73,1.0,2.0,100,0.00,,,1.45,1.000000,,2013-04-29 11:32:00,
2013-04-29 07:42:00,54.0,54.0,-100.00,ENE,73,1.0,2.0,100,0.00,,,1.45,1.000000,,2013-04-29 11:42:00,
2013-04-29 07:52:00,54.0,54.0,-100.00,ENE,73,1.0,2.0,100,0.00,,,1.45,1.000000,,2013-04-29 11:52:00,
2013-04-29 08:01:00,54.0,54.0,-100.00,ENE,73,1.0,2.0,100,0.00,,,1.45,1.000000,,2013-04-29 12:01:00,
2013-04-29 08:22:00,54.0,54.0,-100.00,ESE,120,1.0,3.0,100,0.00,,,1.45,31.000000,,2013-04-29 12:22:00,
2013-04-29 08:32:00,54.0,54.0,-100.00,ESE,120,1.0,3.0,100,0.00,,,1.45,31.000000,,2013-04-29 12:32:00,
2013-04-29 08:42:00,54.0,54.0,-100.00,ESE,120,1.0,3.0,100,0.00,,,1.45,31.000000,,2013-04-29 12:42:00,
2013-04-29 08:52:00,54.0,54.0,-100.00,ESE,120,1.0,3.0,100,0.00,,,1.45,31.000000,,2013-04-29 12:52:00,
2013-04-29 09:01:00,54.0,54.0,-100.00,ESE,120,1.0,3.0,100,0.00,,,1.45,31.000000,,2013-04-29 13:01:00,
2013-04-29 09:22:00,55.0,55.0,-100.00,NE,42,1.0,4.0,100,0.00,,,1.45,85.000000,,2013-04-29 13:22:00,
2013-04-29 09:32:00,55.0,55.0,-100.00,NE,42,1.0,4.0,100,0.00,,,1.45,85.000000,,2013-04-29 13:32:00,
2013-04-29 09:42:00,55.0,55.0,-100.00,NE,42,1.0,4.0,100,0.00,,,1.45,85.000000,,2013-04-29 13:42:00,
2013-04-29 09:52:00,55.0,55.0,-100.00,NE,42,1.0,4.0,100,0.00,,,1.45,85.000000,,2013-04-29 13:52:00,
2013-04-29 10:02:00,55.0,55.0,-100.00,NE,42,1.0,4.0,100,0.00,,,1.45,85.000000,,2013-04-29 14:02:00,
2013-04-29 10:22:00,56.0,56.0,-100.00,NE,40,2.0,4.0,99,0.00,,,1.41,155.000000,,2013-04-29 14:22:00,
2013-04-29 10:32:00,56.0,56.0,-100.00,NE,40,2.0,4.0,99,0.00,,,1.41,155.000000,,2013-04-29 14:32:00,
2013-04-29 10:42:00,56.0,56.0,-100.00,NE,40,2.0,4.0,99,0.00,,,1.41,155.000000,,2013-04-29 14:42:00,
2013-04-29 10:52:00,56.0,56.0,-100.00,NE,40,2.0,4.0,99,0.00,,,1.41,155.000000,,2013-04-29 14:52:00,
2013-04-29 11:01:00,56.0,56.0,-100.00,NE,40,2.0,4.0,99,0.00,,,1.41,155.000000,,2013-04-29 15:01:00,
2013-04-29 11:33:00,59.0,55.0,-100.00,WNW,288,2.0,4.0,88,0.00,,,1.32,360.000000,,2013-04-29 15:33:00,
2013-04-29 11:43:00,59.0,55.0,-100.00,WNW,288,2.0,4.0,88,0.00,,,1.32,360.000000,,2013-04-29 15:43:00,
2013-04-29 11:53:00,59.0,55.0,-100.00,WNW,288,2.0,4.0,88,0.00,,,1.32,360.000000,,2013-04-29 15:53:00,
2013-04-29 12:03:00,59.0,55.0,-100.00,WNW,288,2.0,4.0,88,0.00,,,1.32,360.000000,,2013-04-29 16:03:00,
2013-04-29 12:33:00,62.0,57.0,-100.00,South,187,5.0,9.0,83,0.00,,,1.08,659.000000,,2013-04-29 16:33:00,
2013-04-29 12:42:00,62.0,57.0,-100.00,South,187,5.0,9.0,83,0.00,,,1.08,659.000000,,2013-04-29 16:42:00,
2013-04-29 12:52:00,62.0,57.0,-100.00,South,187,5.0,9.0,83,0.00,,,1.08,659.000000,,2013-04-29 16:52:00,
2013-04-29 13:02:00,62.0,57.0,-100.00,South,187,5.0,9.0,83,0.00,,,1.08,659.000000,,2013-04-29 17:02:00,
2013-04-29 13:32:00,65.0,58.0,-100.00,SSW,213,5.0,10.0,77,0.00,,,0.87,769.000000,,2013-04-29 17:32:00,
2013-04-29 13:42:00,65.0,58.0,-100.00,SSW,213,5.0,10.0,77,0.00,,,0.87,769.000000,,2013-04-29 17:42:00,
2013-04-29 13:52:00,65.0,58.0,-100.00,SSW,213,5.0,10.0,77,0.00,,,0.87,769.000000,,2013-04-29 17:52:00,
2013-04-29 14:01:00,65.0,58.0,-100.00,SSW,213,5.0,10.0,77,0.00,,,0.87,769.000000,,2013-04-29 18:01:00,
2013-04-29 14:22:00,66.0,59.0,-100.00,SSW,196,6.0,11.0,79,0.00,,,0.71,662.000000,,2013-04-29 18:22:00,
2013-04-29 14:32:00,66.0,59.0,-100.00,SSW,196,6.0,11.0,79,0.00,,,0.71,662.000000,,2013-04-29 18:32:00,
2013-04-29 14:42:00,66.0,59.0,-100.00,SSW,196,6.0,11.0,79,0.00,,,0.71,662.000000,,2013-04-29 18:42:00,
2013-04-29 14:52:00,66.0,59.0,-100.00,SSW,196,6.0,11.0,79,0.00,,,0.71,662.000000,,2013-04-29 18:52:00,
2013-04-29 15:01:00,66.0,59.0,-100.00,SSW,196,6.0,11.0,79,0.00,,,0.71,662.000000,,2013-04-29 19:01:00,
2013-04-29 15:22:00,66.0,57.0,-100.00,SSW,208,6.0,12.0,73,0.00,,,0.53,804.000000,,2013-04-29 19:22:00,
2013-04-29 15:32:00,66.0,57.0,-100.00,SSW,208,6.0,12.0,73,0.00,,,0.53,804.000000,,2013-04-29 19:32:00,
2013-04-29 15:42:00,66.0,57.0,-100.00,SSW,208,6.0,12.0,73,0.00,,,0.53,804.000000,,2013-04-29 19:42:00,
2013-04-29 15:52:00,66.0,57.0,-100.00,SSW,208,6.0,12.0,73,0.00,,,0.53,804.000000,,2013-04-29 19:52:00,
2013-04-29 16:02:00,66.0,57.0,-100.00,SSW,208,6.0,12.0,73,0.00,,,0.53,804.000000,,2013-04-29 20:02:00,
2013-04-29 16:32:00,67.0,56.0,-100.00,South,179,4.0,10.0,68,0.00,,,0.46,679.000000,,2013-04-29 20:32:00,
2013-04-29 16:43:00,67.0,56.0,-100.00,South,179,4.0,10.0,68,0.00,,,0.46,679.000000,,2013-04-29 20:43:00,
2013-04-29 16:52:00,67.0,56.0,-100.00,South,179,4.0,10.0,68,0.00,,,0.46,679.000000,,2013-04-29 20:52:00,
2013-04-29 17:01:00,67.0,56.0,-100.00,South,179,4.0,10.0,68,0.00,,,0.46,679.000000,,2013-04-29 21:01:00,
2013-04-29 17:22:00,71.0,57.0,-100.00,SSW,209,5.0,9.0,61,0.00,,,0.36,697.000000,,2013-04-29 21:22:00,
2013-04-29 17:33:00,71.0,57.0,-100.00,SSW,209,5.0,9.0,61,0.00,,,0.36,697.000000,,2013-04-29 21:33:00,
2013-04-29 17:43:00,71.0,57.0,-100.00,SSW,209,5.0,9.0,61,0.00,,,0.36,697.000000,,2013-04-29 21:43:00,
2013-04-29 17:53:00,71.0,57.0,-100.00,SSW,209,5.0,9.0,61,0.00,,,0.36,697.000000,,2013-04-29 21:53:00,
2013-04-29 18:02:00,71.0,57.0,-100.00,SSW,209,5.0,9.0,61,0.00,,,0.36,697.000000,,2013-04-29 22:02:00,
2013-04-29 18:32:00,69.0,55.0,-100.00,SSW,199,2.0,7.0,60,0.00,,,0.27,265.000000,,2013-04-29 22:32:00,
2013-04-29 18:42:00,69.0,55.0,-100.00,SSW,199,2.0,7.0,60,0.00,,,0.27,265.000000,,2013-04-29 22:42:00,
2013-04-29 18:53:00,69.0,55.0,-100.00,SSW,199,2.0,7.0,60,0.00,,,0.27,265.000000,,2013-04-29 22:53:00,
2013-04-29 19:02:00,69.0,55.0,-100.00,SSW,199,2.0,7.0,60,0.00,,,0.27,265.000000,,2013-04-29 23:02:00,
2013-04-29 19:32:00,67.0,55.0,-100.00,ESE,120,1.0,4.0,66,0.00,,,0.24,171.000000,,2013-04-29 23:32:00,
2013-04-29 19:42:00,67.0,55.0,-100.00,ESE,120,1.0,4.0,66,0.00,,,0.24,171.000000,,2013-04-29 23:42:00,
2013-04-29 19:53:00,67.0,55.0,-100.00,ESE,120,1.0,4.0,66,0.00,,,0.24,171.000000,,2013-04-29 23:53:00,
2013-04-29 20:01:00,67.0,55.0,-100.00,ESE,120,1.0,4.0,66,0.00,,,0.24,171.000000,,2013-04-30 00:01:00,
2013-04-29 20:32:00,65.0,57.0,-100.00,ENE,61,0.0,3.0,76,0.00,,,0.18,57.000000,,2013-04-30 00:32:00,
2013-04-29 20:42:00,65.0,57.0,-100.00,ENE,61,0.0,3.0,76,0.00,,,0.18,57.000000,,2013-04-30 00:42:00,
2013-04-29 20:52:00,65.0,57.0,-100.00,ENE,61,0.0,3.0,76,0.00,,,0.18,57.000000,,2013-04-30 00:52:00,
2013-04-29 21:02:00,65.0,57.0,-100.00,ENE,61,0.0,3.0,76,0.00,,,0.18,57.000000,,2013-04-30 01:02:00,
2013-04-29 22:21:00,62.0,57.0,-100.00,NNE,30,2.0,3.0,85,-99.99,,,0.11,0.000000,,2013-04-30 02:21:00,
2013-04-29 22:32:00,62.0,57.0,-100.00,NNE,30,2.0,3.0,85,-99.99,,,0.11,0.000000,,2013-04-30 02:32:00,
2013-04-29 22:42:00,62.0,57.0,-100.00,NNE,30,2.0,3.0,85,-99.99,,,0.11,0.000000,,2013-04-30 02:42:00,
2013-04-29 22:52:00,62.0,57.0,-100.00,NNE,30,2.0,3.0,85,-99.99,,,0.11,0.000000,,2013-04-30 02:52:00,
2013-04-29 23:01:00,62.0,57.0,-100.00,NNE,30,2.0,3.0,85,-99.99,,,0.11,0.000000,,2013-04-30 03:01:00,